Total_Precipitation_Accumulation
0.00 0.01 0.01 0.01 0.01 0.01 0.01 0.01 0.01 0.01 0.01 0.01 0.01 0.00 0.00 0.00 0.00 0.00 0.00 0.00 0.00 0.00 0.00 0.00 0.00 0.01 0.00 0.00 0.00 0.00 0.00 0.00 0.00 0.00 0.00 0.00 0.00 0.00 0.00 0.00 0.00 0.00 0.00 0.00 0.00 0.00 0.00
0.01 0.01 0.01 0.01 0.01 0.01 0.02 0.02 0.02 0.01 0.01 0.01 0.01 0.00 0.00 0.00 0.00 0.00 0.00 0.00 0.00 0.00 0.00 0.00 0.00 0.01 0.00 0.00 0.00 0.00 0.00 0.00 0.00 0.00 0.00 0.00 0.00 0.00 0.00 0.00 0.00 0.00 0.00 0.00 0.00 0.00 0.00
0.01 0.02 0.02 0.02 0.01 0.02 0.02 0.02 0.02 0.01 0.01 0.01 0.01 0.00 0.00 0.00 0.00 0.00 0.00 0.00 0.00 0.00 0.00 0.00 0.00 0.01 0.00 0.00 0.00 0.00 0.00 0.00 0.00 0.00 0.00 0.00 0.00 0.00 0.00 0.00 0.00 0.00 0.00 0.00 0.00 0.00 0.00
0.02 0.03 0.02 0.02 0.03 0.03 0.03 0.02 0.02 0.01 0.01 0.01 0.00 0.00 0.00 0.00 0.00 0.00 0.00 0.00 0.00 0.00 0.00 0.00 0.00 0.01 0.00 0.00 0.00 0.00 0.00 0.00 0.00 0.00 0.00 0.00 0.00 0.00 0.00 0.00 0.00 0.00 0.00 0.00 0.00 0.00 0.00
0.03 0.02 0.02 0.02 0.03 0.03 0.02 0.02 0.03 0.02 0.02 0.01 0.00 0.00 0.00 0.00 0.00 0.00 0.00 0.00 0.00 0.00 0.00 0.00 0.00 0.00 0.00 0.00 0.00 0.00 0.00 0.00 0.00 0.00 0.00 0.00 0.00 0.00 0.00 0.00 0.00 0.00 0.00 0.00 0.00 0.00 0.00
0.02 0.02 0.02 0.03 0.03 0.02 0.02 0.02 0.02 0.02 0.01 0.01 0.00 0.00 0.00 0.00 0.00 0.00 0.00 0.00 0.00 0.00 0.00 0.00 0.00 0.00 0.00 0.00 0.00 0.00 0.00 0.00 0.00 0.00 0.00 0.00 0.00 0.00 0.00 0.00 0.00 0.00 0.00 0.00 0.00 0.00 0.00
0.03 0.03 0.03 0.03 0.02 0.02 0.02 0.02 0.03 0.03 0.01 0.00 0.00 0.00 0.00 0.00 0.00 0.00 0.00 0.00 0.00 0.00 0.00 0.00 0.00 0.00 0.00 0.00 0.00 0.00 0.00 0.00 0.00 0.01 0.00 0.00 0.00 0.00 0.00 0.00 0.00 0.00 0.00 0.00 0.00 0.00 0.00
0.03 0.03 0.03 0.02 0.02 0.02 0.03 0.04 0.04 0.03 0.01 0.00 0.00 0.00 0.00 0.01 0.00 0.00 0.00 0.00 0.00 0.00 0.00 0.00 0.00 0.00 0.00 0.00 0.00 0.00 0.00 0.00 0.01 0.05 0.03 0.00 0.00 0.00 0.00 0.00 0.00 0.00 0.00 0.00 0.00 0.00 0.00
0.02 0.02 0.03 0.03 0.03 0.03 0.04 0.03 0.03 0.02 0.00 0.00 0.00 0.00 0.00 0.00 0.00 0.00 0.00 0.00 0.00 0.00 0.00 0.00 0.00 0.00 0.00 0.00 0.00 0.00 0.00 0.00 0.00 0.02 0.07 0.02 0.00 0.00 0.00 0.00 0.00 0.00 0.00 0.00 0.00 0.00 0.00
0.04 0.04 0.04 0.04 0.04 0.03 0.03 0.03 0.02 0.01 0.00 0.00 0.00 0.00 0.00 0.00 0.00 0.00 0.00 0.00 0.00 0.00 0.01 0.00 0.00 0.00 0.00 0.00 0.00 0.00 0.00 0.00 0.00 0.01 0.06 0.07 0.00 0.00 0.00 0.00 0.00 0.00 0.00 0.00 0.00 0.00 0.00
0.05 0.05 0.05 0.04 0.03 0.03 0.03 0.02 0.01 0.01 0.00 0.01 0.01 0.00 0.00 0.01 0.02 0.00 0.00 0.00 0.00 0.01 0.00 0.00 0.00 0.00 0.00 0.00 0.00 0.00 0.00 0.00 0.00 0.00 0.05 0.06 0.03 0.02 0.00 0.00 0.00 0.00 0.00 0.00 0.00 0.00 0.00
0.05 0.05 0.05 0.05 0.04 0.04 0.03 0.02 0.01 0.01 0.01 0.01 0.01 0.00 0.01 0.01 0.02 0.00 0.00 0.00 0.01 0.02 0.00 0.00 0.00 0.00 0.00 0.00 0.00 0.00 0.00 0.00 0.00 0.00 0.00 0.00 0.01 0.01 0.01 0.00 0.01 0.00 0.01 0.00 0.00 0.00 0.00
0.03 0.04 0.04 0.04 0.04 0.04 0.03 0.02 0.02 0.01 0.01 0.01 0.00 0.00 0.01 0.01 0.01 0.00 0.00 0.01 0.03 0.01 0.00 0.00 0.00 0.00 0.00 0.00 0.00 0.00 0.00 0.00 0.00 0.00 0.00 0.00 0.00 0.00 0.00 0.00 0.01 0.02 0.06 0.05 0.03 0.01 0.01
0.03 0.04 0.05 0.05 0.05 0.05 0.05 0.04 0.03 0.02 0.01 0.01 0.01 0.00 0.00 0.01 0.01 0.02 0.01 0.02 0.02 0.00 0.00 0.00 0.00 0.00 0.00 0.00 0.00 0.00 0.00 0.00 0.00 0.00 0.00 0.01 0.02 0.00 0.00 0.00 0.01 0.01 0.05 0.08 0.05 0.01 0.00
0.04 0.05 0.06 0.06 0.07 0.06 0.06 0.04 0.03 0.03 0.01 0.01 0.02 0.00 0.00 0.00 0.01 0.02 0.04 0.05 0.00 0.00 0.00 0.00 0.00 0.00 0.00 0.00 0.00 0.00 0.00 0.00 0.00 0.00 0.00 0.00 0.00 0.00 0.00 0.00 0.02 0.07 0.09 0.06 0.12 0.07 0.01
0.06 0.06 0.06 0.07 0.06 0.05 0.07 0.06 0.05 0.04 0.03 0.04 0.04 0.02 0.00 0.00 0.04 0.13 0.18 0.05 0.00 0.00 0.00 0.00 0.00 0.00 0.00 0.00 0.00 0.00 0.01 0.01 0.02 0.00 0.00 0.00 0.00 0.00 0.00 0.00 0.00 0.06 0.15 0.29 0.31 0.21 0.05
0.06 0.06 0.06 0.06 0.07 0.07 0.07 0.05 0.04 0.05 0.06 0.08 0.08 0.06 0.01 0.01 0.13 0.34 0.24 0.03 0.00 0.00 0.00 0.00 0.00 0.00 0.00 0.00 0.00 0.00 0.03 0.11 0.05 0.02 0.00 0.00 0.00 0.00 0.00 0.00 0.01 0.06 0.24 0.37 0.23 0.05 0.04
0.04 0.05 0.05 0.06 0.06 0.06 0.05 0.06 0.06 0.06 0.11 0.09 0.13 0.09 0.09 0.18 0.23 0.21 0.13 0.02 0.00 0.00 0.00 0.00 0.00 0.00 0.00 0.00 0.00 0.00 0.00 0.02 0.02 0.01 0.04 0.01 0.01 0.00 0.00 0.00 0.00 0.02 0.04 0.14 0.36 0.19 0.03
0.06 0.06 0.07 0.10 0.11 0.12 0.11 0.10 0.10 0.10 0.17 0.18 0.19 0.05 0.11 0.53 0.66 0.17 0.08 0.04 0.01 0.00 0.00 0.00 0.00 0.00 0.00 0.00 0.01 0.00 0.00 0.00 0.00 0.01 0.02 0.01 0.01 0.01 0.01 0.03 0.01 0.01 0.03 0.07 0.19 0.31 0.21
0.05 0.05 0.05 0.06 0.07 0.08 0.09 0.09 0.10 0.14 0.23 0.35 0.35 0.21 0.11 0.29 0.20 0.35 0.44 0.22 0.05 0.04 0.04 0.05 0.01 0.00 0.00 0.00 0.01 0.01 0.01 0.01 0.02 0.01 0.00 0.00 0.01 0.01 0.02 0.08 0.10 0.06 0.04 0.08 0.30 0.45 0.16
0.06 0.07 0.07 0.07 0.07 0.07 0.08 0.11 0.10 0.15 0.25 0.43 0.46 0.20 0.15 0.24 0.18 0.18 0.28 0.30 0.18 0.20 0.12 0.06 0.04 0.04 0.05 0.04 0.02 0.01 0.01 0.03 0.02 0.01 0.00 0.01 0.02 0.03 0.00 0.00 0.03 0.08 0.08 0.07 0.16 0.21 0.26
0.07 0.08 0.09 0.11 0.13 0.15 0.13 0.12 0.14 0.16 0.33 0.52 0.37 0.16 0.15 0.09 0.15 0.21 0.30 0.18 0.10 0.13 0.14 0.19 0.23 0.07 0.04 0.06 0.04 0.04 0.03 0.06 0.06 0.05 0.04 0.04 0.04 0.01 0.00 0.00 0.00 0.01 0.01 0.11 0.13 0.08 0.09
0.08 0.09 0.09 0.09 0.10 0.10 0.11 0.14 0.17 0.20 0.39 0.45 0.28 0.22 0.39 0.21 0.08 0.15 0.16 0.13 0.12 0.07 0.11 0.14 0.21 0.13 0.05 0.09 0.07 0.05 0.07 0.06 0.04 0.04 0.05 0.04 0.05 0.08 0.05 0.00 0.00 0.00 0.00 0.03 0.10 0.14 0.22
0.07 0.07 0.07 0.07 0.06 0.07 0.08 0.10 0.13 0.24 0.35 0.25 0.25 0.31 0.45 0.26 0.09 0.07 0.06 0.07 0.10 0.09 0.10 0.06 0.16 0.42 0.22 0.05 0.04 0.03 0.03 0.03 0.01 0.01 0.01 0.01 0.02 0.07 0.07 0.04 0.03 0.00 0.00 0.00 0.02 0.07 0.08
0.04 0.05 0.07 0.08 0.08 0.08 0.09 0.10 0.10 0.18 0.33 0.34 0.28 0.45 0.47 0.26 0.06 0.04 0.06 0.08 0.11 0.19 0.17 0.11 0.09 0.21 0.24 0.18 0.15 0.07 0.05 0.05 0.01 0.00 0.00 0.00 0.01 0.06 0.06 0.10 0.04 0.01 0.00 0.00 0.03 0.03 0.04
0.06 0.07 0.08 0.10 0.10 0.09 0.08 0.12 0.14 0.15 0.31 0.36 0.32 0.37 0.65 0.55 0.12 0.03 0.06 0.11 0.16 0.18 0.27 0.18 0.32 0.30 0.31 0.48 0.37 0.14 0.09 0.09 0.08 0.03 0.01 0.00 0.00 0.06 0.08 0.06 0.02 0.00 0.00 0.00 0.00 0.04 0.01
0.11 0.11 0.12 0.11 0.10 0.09 0.08 0.08 0.08 0.09 0.19 0.36 0.33 0.28 0.68 0.81 0.11 0.07 0.14 0.21 0.32 0.33 0.30 0.32 0.44 0.32 0.46 0.43 0.35 0.10 0.09 0.11 0.16 0.15 0.09 0.03 0.04 0.04 0.06 0.06 0.02 0.00 0.00 0.00 0.05 0.12 0.01
0.23 0.26 0.29 0.32 0.31 0.25 0.19 0.13 0.10 0.11 0.15 0.36 0.34 0.31 0.45 0.56 0.14 0.05 0.04 0.10 0.20 0.30 0.46 0.48 0.59 0.57 0.33 0.26 0.11 0.09 0.10 0.09 0.09 0.21 0.20 0.09 0.05 0.05 0.05 0.08 0.03 0.00 0.01 0.06 0.16 0.05 0.02
0.20 0.22 0.25 0.29 0.32 0.34 0.35 0.34 0.27 0.20 0.17 0.37 0.45 0.33 0.40 0.55 0.20 0.03 0.04 0.04 0.03 0.05 0.17 0.40 0.51 0.55 0.54 0.32 0.20 0.15 0.14 0.12 0.10 0.15 0.28 0.44 0.18 0.07 0.01 0.01 0.05 0.07 0.08 0.07 0.03 0.10 0.09